Birmingham, AL

10:37 PM CST on January 19, 2018 (GMT -0600)
Birmingham International

Weather History for KBHM - May, 2013

Change the Weather History Date:

Tuesday, May 28, 2013

  Actual Average Record
Temperature  
Mean Temperature 75 °F 74 °F  
Max Temperature 87 °F 84 °F 99 °F (1962)
Min Temperature 63 °F 63 °F 44 °F (1907)
Cooling Degree Days 10 9  
Month to date cooling degree days 144 171  
Year to date cooling degree days 221 255  
Growing Degree Days 25 (Base 50)    
Moisture  
Dew Point 59 °F    
Average Humidity 59    
Maximum Humidity 78    
Minimum Humidity 40    
Precipitation  
Precipitation 0.00 in 0.16 in 2.28 in (1991)
Month to date precipitation 5.96 4.53  
Year to date precipitation 30.51 23.51  
Sea Level Pressure  
Sea Level Pressure 30.11 in    
Wind  
Wind Speed 7 mph (SSE)    
Max Wind Speed 18 mph    
Max Gust Speed 28 mph    
Visibility 10 miles    
Events      
T = Trace of Precipitation, MM = Missing Value Source: NWS Daily Summary

Daily Weather History Graph

Daily Weather History Graph

Search for Another Location

Airport or City:

Trip Planner

Search our weather history database for the weather conditions in past years. The results will help you decide how hot, cold, wet, or windy it might be!

Date:

Astronomy

May. 28, 2013 Rise Set
Actual Time 5:39 AM CDT 7:49 PM CDT
Civil Twilight 5:10 AM CDT 8:18 PM CDT
Nautical Twilight 4:36 AM CDT 8:52 PM CDT
Astronomical Twilight 3:59 AM CDT 9:30 PM CDT
Moon 11:19 PM CDT (5/28) 9:22 AM CDT (5/28)
Length of Visible Light 15h 07m
Length of Day
14h 10m
Waning Gibbous, 82% of the Moon is Illuminated
May 28
Waning Gibbous
May 31
Last Quarter
Jun 8
New
Jun 16
First Quarter
Jun 23
Full

Hourly Weather History & Observations

Time (CDT) Temp. Heat Index Dew Point Humidity Pressure Visibility Wind Dir Wind Speed Gust Speed Precip Events Conditions
12:53 AM 70.0 °F - 59.0 °F 68% 30.09 in 10.0 mi Calm Calm - N/A   Clear
1:53 AM 72.0 °F - 57.9 °F 61% 30.09 in 10.0 mi South 3.5 mph - N/A   Clear
2:53 AM 72.0 °F - 57.0 °F 59% 30.10 in 10.0 mi SSW 5.8 mph - N/A   Clear
3:53 AM 69.1 °F - 57.0 °F 65% 30.11 in 10.0 mi South 4.6 mph - N/A   Clear
4:53 AM 68.0 °F - 57.0 °F 68% 30.12 in 10.0 mi Calm Calm - N/A   Clear
5:53 AM 64.0 °F - 57.9 °F 80% 30.14 in 10.0 mi Calm Calm - N/A   Clear
6:53 AM 69.1 °F - 59.0 °F 70% 30.14 in 10.0 mi Calm Calm - N/A   Clear
7:53 AM 72.0 °F - 59.0 °F 64% 30.15 in 10.0 mi Variable 3.5 mph - N/A   Clear
8:53 AM 75.9 °F - 55.9 °F 50% 30.16 in 10.0 mi South 6.9 mph - N/A   Clear
9:53 AM 78.1 °F - 57.9 °F 50% 30.16 in 10.0 mi South 8.1 mph 17.3 mph N/A   Clear
10:53 AM 80.1 °F 80.6 °F 57.9 °F 47% 30.15 in 10.0 mi SE 9.2 mph - N/A   Clear
11:53 AM 81.0 °F 81.3 °F 59.0 °F 47% 30.14 in 10.0 mi SE 9.2 mph - N/A   Partly Cloudy
12:53 PM 84.9 °F 84.2 °F 57.9 °F 40% 30.12 in 10.0 mi South 11.5 mph 21.9 mph N/A   Mostly Cloudy
1:53 PM 86.0 °F 85.7 °F 60.1 °F 41% 30.10 in 10.0 mi South 11.5 mph 17.3 mph N/A   Mostly Cloudy
2:53 PM 86.0 °F 85.4 °F 59.0 °F 40% 30.10 in 10.0 mi South 10.4 mph - N/A   Mostly Cloudy
3:53 PM 84.0 °F 83.8 °F 59.0 °F 43% 30.09 in 10.0 mi South 10.4 mph - N/A   Scattered Clouds
4:53 PM 86.0 °F 85.7 °F 60.1 °F 41% 30.07 in 10.0 mi SE 8.1 mph - N/A   Scattered Clouds
5:53 PM 84.9 °F 84.8 °F 60.1 °F 43% 30.06 in 10.0 mi SSE 10.4 mph - N/A   Scattered Clouds
6:53 PM 82.9 °F 83.3 °F 61.0 °F 47% 30.06 in 10.0 mi SE 5.8 mph - N/A   Scattered Clouds
7:53 PM 81.0 °F 81.7 °F 61.0 °F 50% 30.07 in 10.0 mi SE 6.9 mph - N/A   Scattered Clouds
8:53 PM 80.1 °F 81.1 °F 61.0 °F 52% 30.08 in 10.0 mi ESE 5.8 mph - N/A   Mostly Cloudy
9:53 PM 79.0 °F - 61.0 °F 54% 30.08 in 10.0 mi ESE 6.9 mph - N/A   Mostly Cloudy
10:53 PM 79.0 °F - 60.1 °F 52% 30.09 in 10.0 mi ESE 5.8 mph - N/A   Mostly Cloudy
11:53 PM 77.0 °F - 57.9 °F 52% 30.08 in 10.0 mi SE 8.1 mph - N/A   Scattered Clouds